Regional Weather Roundup
Issued by NWS Goodland, KS

Home | Current Version | Previous Version | Graphics & Text | Print | Product List | Glossary On
Versions: 1 2 3 4 5 6 7 8 9 10 11 12 13 14 15 16 17 18 19 20 21 22 23 24 25 26 27 28 29 30 31 32 33 34 35 36 37 38 39 40 41 42 43 44 45 46 47 48 49 50
000
ASUS43 KGLD 311059
RWRGLD

GOODLAND FORECAST AREA HOURLY WEATHER ROUNDUP
NATIONAL WEATHER SERVICE GOODLAND KS
500 AM MDT THU JUL 31 2014

...OFFICIAL OBSERVATIONS...

CITY           SKY/WX    TMP DP  RH WIND       PRES   REMARKS
GOODLAND KS    PTCLDY    57  55  93 W8        30.22F
HILL CITY KS   CLEAR     55  51  86 W6        30.16S
IMPERIAL NEB   PTCLDY    59  56  89 W7        30.19S
MCCOOK NEB     MOCLDY    58  56  93 SW5       30.17S
AKRON CO       CLOUDY    58  56  93 W5        30.25F
BURLINGTON CO  CLEAR     53  51  93 W6        30.25F
LIMON CO       CLOUDY    56  54  93 E3        30.29F
$$

...UNOFFICIAL OBSERVATIONS...

CITY           SKY/WX    TMP DP  RH WIND       PRES   REMARKS
COLBY KS       CLEAR     55  55 100 W7        30.21S
GOVE KS          N/A     57  32  39 MISG        N/A
LENORA KS        N/A     59  32  36 MISG        N/A
NORTON KS      CLEAR     55  52  88 W6        30.15S
SHARON SPRINGS   N/A     56  54  94 CALM        N/A
WAKEENEY KS      N/A     60  54  80 MISG        N/A
KIT CARSON CO    N/A     57  54  91 CALM        N/A
YUMA CO          N/A     59  57  92 CALM        N/A
$$


USA.gov is the U.S. government's official web portal to all federal, state and local government web resources and services.